Simultaneous Nadir Overpasses (SNOs) Predictions

Prediction of SNOs between METOP-C and LANDSAT-8 Satellite Orbit:

Table of predicted SNOs for the next 14.0 days since TLE Epoch: 10/3/2025
Index Date (METOP-C) Time (METOP-C) Lat,Lon (METOP-C) SZA (METOP-C ) Date (LANDSAT-8) Time (LANDSAT-8) Lat,Lon (LANDSAT-8) SZA (LANDSAT-8 ) Distance(km) Time Diff (sec)
1 10/05/2025 04:13:21 -81.11, -23.75 91.80 10/05/2025 04:13:54 -81.10, -23.79 91.79 0.80 33
2 10/05/2025 05:04:00 81.13, 144.36 88.32 10/05/2025 05:03:19 81.13, 144.31 88.30 0.87 41
3 10/07/2025 23:47:41 -81.11, 42.79 90.69 10/07/2025 23:48:10 -81.11, 42.75 90.68 0.61 29
4 10/08/2025 00:38:20 81.14,-149.13 89.43 10/08/2025 00:37:35 81.14,-149.18 89.40 0.89 45
5 10/10/2025 19:22:00 -81.11, 109.18 89.61 10/10/2025 19:22:24 -81.12, 109.28 89.59 1.80 24
6 10/10/2025 20:12:39 81.14, -82.76 90.50 10/10/2025 20:11:49 81.14, -82.68 90.49 1.52 50
7 10/13/2025 14:56:19 -81.12, 175.81 88.51 10/13/2025 14:56:38 -81.12, 175.80 88.51 0.37 19
8 10/13/2025 15:46:58 81.14, -16.16 91.60 10/13/2025 15:46:03 81.14, -16.19 91.57 0.61 55
9 10/16/2025 10:30:38 -81.12,-117.70 87.45 10/16/2025 10:30:51 -81.12,-117.69 87.45 0.46 13



Historial Predications of SNOs between METOP-C and LANDSAT-8
